Change the Weather History Date:

Thursday, January 31, 2013

  Actual Average Record
Temperature  
Mean Temperature 14 °F -  
Max Temperature 28 °F 29 °F 50 °F (2003)
Min Temperature 1 °F 8 °F -23 °F (2011)
Degree Days  
Heating Degree Days 50    
Moisture  
Dew Point 12 °F    
Average Humidity 74    
Maximum Humidity 85    
Minimum Humidity 64    
Precipitation  
Precipitation 0.03 in - - ()
Sea Level Pressure  
Sea Level Pressure 30.14 in    
Wind  
Wind Speed 3 mph ()    
Max Wind Speed 7 mph    
Max Gust Speed -    
Visibility 15.5 miles    
Events      
Averages and records for this station are not official NWS values.
T = Trace of Precipitation, MM = Missing Value Source: Averaged Metar Reports

Daily Weather History Graph

Daily Weather History Graph

Search for Another Location

Airport or City:

Trip Planner

Search our weather history database for the weather conditions in past years. The results will help you decide how hot, cold, wet, or windy it might be!

Date:

Astronomy

Jan. 31, 2013 Rise Set
Actual Time 8:15 AM MST 5:27 PM MST
Civil Twilight 7:39 AM MST 6:03 PM MST
Nautical Twilight 6:59 AM MST 6:43 PM MST
Astronomical Twilight 6:20 AM MST 7:21 PM MST
Moon 11:16 PM MST (1/31) 9:39 AM MST (1/31)
Length of Visible Light 10h 23m
Length of Day
9h 12m
Waning Gibbous, 79% of the Moon is Illuminated
Jan 31
Waning Gibbous
Feb 3
Last Quarter
Feb 10
New
Feb 17
First Quarter
Feb 25
Full

Hourly Weather History & Observations

Time (MST) Temp. Windchill Dew Point Humidity Pressure Visibility Wind Dir Wind Speed Gust Speed Precip Events Conditions
5:00 AM 5 °F - 1 °F 75% 30.29 in 15 mi WNW 3.5 mph - -   Partly Cloudy
5:00 AM 5.0 °F -2.1 °F 1.4 °F 85% 30.28 in 15.0 mi NW 3.5 mph - N/A   Mostly Cloudy
6:00 AM 3.2 °F -4.2 °F -0.4 °F 85% 30.27 in 15.0 mi WNW 3.5 mph - N/A   Mostly Cloudy
7:00 AM 6.8 °F -2.0 °F 3.2 °F 85% 30.25 in 15.0 mi NNW 4.6 mph - N/A   Mostly Cloudy
8:00 AM 10.4 °F 4.0 °F 6.8 °F 85% 30.23 in 20.0 mi North 3.5 mph - N/A   Mostly Cloudy
9:00 AM 12.2 °F 1.7 °F 6.8 °F 79% 30.23 in 30.0 mi WNW 6.9 mph - N/A   Mostly Cloudy
10:00 AM 15.8 °F 10.2 °F 8.6 °F 73% 30.21 in 30.0 mi WNW 3.5 mph - N/A   Mostly Cloudy
11:00 AM 17 °F - 10 °F 64% 30.19 in 28 mi WNW 3.5 mph - -   Partly Cloudy
11:00 AM 17.6 °F 10.7 °F 10.4 °F 73% 30.19 in 30.0 mi WNW 4.6 mph - N/A   Mostly Cloudy
12:00 PM 21.2 °F - 12.2 °F 68% 30.17 in 30.0 mi Calm Calm - N/A   Mostly Cloudy
1:00 PM 24.8 °F - 15.8 °F 69% 30.13 in 30.0 mi ENE 2.3 mph - N/A   Mostly Cloudy
2:00 PM 26.6 °F - 15.8 °F 64% 30.10 in 30.0 mi Calm Calm - N/A   Mostly Cloudy
3:00 PM 26.6 °F - 17.6 °F 69% 30.09 in 30.0 mi Calm Calm - N/A   Mostly Cloudy
4:00 PM 28.4 °F - 17.6 °F 64% 30.08 in 30.0 mi Calm Calm - N/A   Mostly Cloudy
5:00 PM 25 °F - 18 °F 64% 30.08 in 28 mi Calm Calm - -   Clear
5:00 PM 24.8 °F - 17.6 °F 74% 30.08 in 30.0 mi Calm Calm - N/A   Mostly Cloudy
6:00 PM 26.6 °F - 19.4 °F 74% 30.08 in 15.0 mi Calm Calm - N/A   Overcast
7:00 PM 24.8 °F 19.1 °F 17.6 °F 74% 30.08 in 15.0 mi ESE 4.6 mph - N/A   Overcast
8:00 PM 26.6 °F 19.1 °F 19.4 °F 74% 30.07 in 15.0 mi East 6.9 mph - N/A   Overcast
9:00 PM 26.6 °F - 21.2 °F 80% 30.06 in 15.0 mi Variable 2.3 mph - N/A   Overcast
10:00 PM 24.8 °F - 19.4 °F 80% 29.85 in 15.0 mi Calm Calm - N/A   Overcast